Regional Weather Roundup
Issued by NWS

Home | Current Version | Previous Version | Graphics & Text | Print | Product List | Glossary On
Versions: 1 2 3 4 5 6 7 8 9 10 11 12 13 14 15 16 17 18 19 20 21 22 23 24 25 26 27 28 29 30 31 32 33 34 35 36 37 38 39 40 41 42 43 44 45 46 47 48 49 50
000
ASUS45 KABQ 230010
RWRNM
NEW MEXICO REGIONAL WEATHER ROUNDUP
NATIONAL WEATHER SERVICE ALBUQUERQUE NM
600 PM MDT MON MAY 22 2017

NOTE: "FAIR" MEANS FEW OR NO CLOUDS BELOW 12,000 FEET AGL WITH NO
       SIGNIFICANT WEATHER OR OBSTRUCTIONS TO VISION.

      THIS PRODUCT IS RELEASED AS TWO VERSIONS.  ONE VERSION NEAR
      THE TOP OF THE HOUR CONTAINING PRELIMINARY DATA FROM ALBUQUERQUE
      AND OTHER STATIONS.  A FINAL VERSION WITH ADDITIONAL DATA IS
      ISSUED ABOUT 10 MINUTES AFTER THE HOUR.

NMZ501-503-504-510>518-230100-
NORTHWEST PLATEAU/NORTHCENTRAL MOUNTAINS

CITY           SKY/WX    TMP DP  RH WIND       PRES   REMARKS
FARMINGTON     FAIR      74  37  26 NW20G26   30.05F
6HR MIN TEMP:  67; 6HR MAX TEMP:  75;

LOS ALAMOS     FAIR      68  18  15 W18G26    30.10F
SANTA FE       FAIR      74  22  14 NW17G24   30.03F
6HR MIN TEMP:  71; 6HR MAX TEMP:  77;

TAOS           FAIR      64  27  24 NW6       30.09F
ANGEL FIRE     PTSUNNY   52  34  50 N5        30.16F

$$
NMZ402-403-502-505>509-230100-
WESTCENTRAL MOUNTAINS/SOUTHWEST MOUNTAINS

CITY           SKY/WX    TMP DP  RH WIND       PRES   REMARKS
GALLUP         FAIR      71  22  15 NW15G23   30.14F
6HR MIN TEMP:  67; 6HR MAX TEMP:  74;

GRANTS         FAIR      74  15  10 NW22G32   30.12S
SILVER CITY    FAIR      82  22  11 NW15G24   30.02F

$$
NMZ407-409-411-412-230100-
SOUTHERN DESERTS

CITY           SKY/WX    TMP DP  RH WIND       PRES   REMARKS
DEMING         FAIR      90  12   5 W18G28    29.93F
6HR MIN TEMP:  85; 6HR MAX TEMP:  93;

LAS CRUCES     FAIR      87  23   9 N15G22    29.95S
HOLLOMAN AFB   FAIR      85  23  10 NW10      29.96F
ALAMOGORDO     FAIR      84  25  11 NW16G25   29.95S
T OR C         FAIR      86  21   9 W18G32    29.96F
6HR MIN TEMP:  80; 6HR MAX TEMP:  86;


$$
NMZ519>523-230100-
CENTRAL VALLEYS/CENTRAL HIGHLANDS

CITY           SKY/WX    TMP DP  RH WIND       PRES   REMARKS
ALBUQUERQUE    FAIR      78  13   8 NW16G24   30.02S
6HR MIN TEMP:  73; 6HR MAX TEMP:  80;

DOUBLE EAGLE   MOSUNNY   75  21  13 NW20G29   30.05F
MORIARTY ARPT  FAIR      76  19  11 W16G24    30.07S
6HR MIN TEMP:  74; 6HR MAX TEMP:  78;

CLINES CORNERS FAIR      70  17  13 NW21G30   30.09F
6HR MIN TEMP:  67; 6HR MAX TEMP:  72;

BELEN          FAIR      82  17   9 W17       30.00S
6HR MIN TEMP:  74; 6HR MAX TEMP:  84;

SOCORRO        FAIR      84  17   8 NW16G24   29.97S
6HR MIN TEMP:  76; 6HR MAX TEMP:  87;


$$
NMZ524>526-539-540-230100-
SOUTHCENTRAL MOUNTAINS

CITY           SKY/WX    TMP DP  RH WIND       PRES   REMARKS
RUIDOSO        FAIR      68  27  21 W10       30.14R

$$
NMZ527>531-230100-
NORTHEAST HIGHLANDS/NORTHEAST PLAINS

CITY           SKY/WX    TMP DP  RH WIND       PRES   REMARKS
LAS VEGAS      PTSUNNY   60  44  55 S14       30.06F
6HR MIN TEMP:  57; 6HR MAX TEMP:  66; 6HR PCP:  0.05;

RATON          TSTM      49  41  74 W10       30.10R VSB 3/4
6HR MIN TEMP:  51; 6HR MAX TEMP:  66; 6HR PCP:  0.09;

CLAYTON        FAIR      64  38  38 NE10      30.03F
6HR MIN TEMP:  60; 6HR MAX TEMP:  67;


$$
NMZ532>537-230100-
EASTCENTRAL PLAINS

CITY           SKY/WX    TMP DP  RH WIND       PRES   REMARKS
SANTA ROSA     FAIR      68  46  45 S5        29.97F
TUCUMCARI      FAIR      73  47  39 E12       29.96S
6HR MIN TEMP:  66; 6HR MAX TEMP:  76;

CANNON AFB     FAIR      67  51  57 NE15      30.01R
6HR MIN TEMP:  65; 6HR MAX TEMP:  69; 6HR PCP: TRACE;

CLOVIS AIRPORT FAIR      68  46  45 NE17      30.00R

$$
NMZ028-029-538-230100-
SOUTHEAST PLAINS

CITY           SKY/WX    TMP DP  RH WIND       PRES   REMARKS
ROSWELL        FAIR      75  51  43 S6        29.91F
6HR MIN TEMP:  69; 6HR MAX TEMP:  76; 6HR PCP: TRACE;

ARTESIA        FAIR      75  55  50 S14       29.88F
CARLSBAD       NOT AVBL
HOBBS          TSTM      72  57  60 E12       29.98


$$




USA.gov is the U.S. government's official web portal to all federal, state and local government web resources and services.